PDT,Max TemperatureF,Mean TemperatureF,Min TemperatureF,Max Dew PointF,MeanDew PointF,Min DewpointF,Max Humidity, Mean Humidity, Min Humidity, Max Sea Level PressureIn, Mean Sea Level PressureIn, Min Sea Level PressureIn, Max VisibilityMiles, Mean VisibilityMiles, Min VisibilityMiles, Max Wind SpeedMPH, Mean Wind SpeedMPH, Max Gust SpeedMPH,PrecipitationIn, CloudCover, Events, WindDirDegrees
2013-3-1,57,54,51,48,47,45,88,75,67,30.35,30.30,30.27,10,10,10,26,18,33,0.00,8,,163
2013-3-2,57,48,39,46,41,32,87,73,63,30.27,30.17,30.06,10,10,5,24,14,31,0.11,7,,177
2013-3-3,46,37,28,37,32,23,93,74,50,30.33,30.28,30.21,10,10,1,12,5,16,0.00,5,,311
2013-3-4,53,38,24,32,27,19,93,68,35,30.33,30.17,29.97,10,9,0,9,1,,0.00,0,,50
2013-3-5,53,43,33,37,32,25,87,66,38,29.96,29.84,29.75,10,10,10,8,2,,0.00,6,,321
2013-3-6,42,38,33,39,37,30,93,89,81,29.91,29.71,29.61,10,9,1,14,2,17,0.01,7,,318
2013-3-7,46,38,30,41,37,28,100,88,76,30.12,30.05,29.91,10,8,0,16,6,20,0.00,7,,122
2013-3-8,51,40,28,39,33,25,100,84,58,30.27,30.15,30.11,10,6,0,12,1,,0.00,4,,312
2013-3-9,53,40,26,39,32,23,93,79,51,30.52,30.43,30.27,10,7,0,8,1,,0.00,2,,213
2013-3-10,46,38,30,39,36,28,93,82,66,30.52,30.48,30.45,10,10,0,7,1,,0.00,8,,252
2013-3-11,53,43,33,43,37,30,100,78,50,30.47,30.37,30.17,10,7,0,12,1,,0.00,6,,169
2013-3-12,51,50,48,48,46,41,88,82,76,30.16,30.09,30.05,10,10,10,22,13,29,0.01,8,,144
2013-3-13,53,52,50,48,47,46,94,85,77,30.21,30.16,30.10,10,10,10,16,11,22,0.00,8,,146
2013-3-14,53,50,48,48,46,43,93,82,71,30.16,30.08,30.04,10,10,10,18,7,28,0.00,7,,150
2013-3-15,59,54,48,48,46,43,93,79,63,30.22,30.18,30.15,10,10,9,14,8,17,0.00,8,,153
2013-3-16,50,42,35,45,40,34,93,86,66,30.14,30.01,29.90,10,9,2,21,5,25,0.24,8,,183
2013-3-17,46,42,35,36,32,28,93,69,53,30.20,30.14,29.99,10,10,7,16,8,23,0.02,8,,241
2013-3-18,50,42,35,37,32,27,93,70,40,30.27,30.20,30.11,10,10,10,18,10,26,0.01,7,,245
2013-3-19,53,42,30,39,31,27,87,67,38,30.26,29.99,29.61,10,10,10,23,5,29,0.01,4,,107
2013-3-20,53,44,35,46,38,27,93,74,53,30.03,29.62,29.38,10,10,9,31,12,47,0.17,7,,180
2013-3-21,46,40,35,37,32,28,87,77,57,30.22,30.15,30.03,10,10,6,16,6,21,0.02,7,,227
2013-3-22,46,37,28,36,30,21,93,76,39,30.40,30.31,30.22,10,10,7,13,5,17,0.01,5,,162
2013-3-23,48,38,28,30,27,25,93,69,40,30.43,30.38,30.33,10,10,10,8,1,,0.00,1,,315
2013-3-24,57,42,28,30,28,25,93,63,31,30.33,30.25,30.15,10,10,10,10,1,,0.00,2,,127
2013-3-25,60,45,30,34,30,25,87,58,29,30.17,30.06,29.97,10,10,10,12,3,,0.00,2,,346
2013-3-26,60,46,33,39,35,28,87,67,39,30.04,30.00,29.98,10,10,10,12,2,,0.00,3,,302
2013-3-27,55,47,39,43,39,36,93,74,54,30.02,29.99,29.97,10,10,3,7,1,,0.00,6,,166
2013-3-28,62,48,35,46,41,34,93,76,45,30.17,30.09,30.02,10,10,1,10,1,,0.01,5,,284
2013-3-29,62,50,37,46,42,36,93,77,52,30.28,30.24,30.18,10,8,0,12,3,,0.01,2,,312
2013-3-30,64,50,37,48,41,34,93,76,52,30.29,30.22,30.11,10,6,0,13,3,,0.00,3,,307
2013-3-31,66,50,33,48,40,32,93,71,46,30.11,30.02,29.93,10,8,0,10,2,,0.00,0,,319